Mount Carmel, IL

8:12 AM CDT on July 21, 2017 (GMT -0500)
Mount Carmel Municipal

Weather History for KAJG - April, 2014

Change the Weather History Date:

Sunday, April 13, 2014

  Actual Average (KLWV) Record (KLWV)
Temperature  
Mean Temperature 70 °F -  
Max Temperature 77 °F 64 °F 86 °F (2006)
Min Temperature 64 °F 43 °F 32 °F (2007)
Cooling Degree Days 6    
Growing Degree Days 20 (Base 50)    
Moisture  
Dew Point 58 °F    
Average Humidity 64    
Maximum Humidity 83    
Minimum Humidity 50    
Precipitation  
Precipitation 0.03 in - - ()
Sea Level Pressure  
Sea Level Pressure 29.79 in    
Wind  
Wind Speed 15 mph (SSW)    
Max Wind Speed 25 mph    
Max Gust Speed 34 mph    
Visibility 10 miles    
Events Rain    
Averages and records for this station are not official NWS values.
T = Trace of Precipitation, MM = Missing Value Source: NWS Daily Summary

Daily Weather History Graph

Daily Weather History Graph

Search for Another Location

Airport or City:

Trip Planner

Search our weather history database for the weather conditions in past years. The results will help you decide how hot, cold, wet, or windy it might be!

Date:

Astronomy

Apr. 13, 2014 Rise Set
Actual Time 6:17 AM CDT 7:25 PM CDT
Civil Twilight 5:50 AM CDT 7:53 PM CDT
Nautical Twilight 5:17 AM CDT 8:25 PM CDT
Astronomical Twilight 4:43 AM CDT 8:59 PM CDT
Moon 6:04 PM CDT (4/13) 5:15 AM CDT (4/13)
Length of Visible Light 14h 02m
Length of Day
13h 08m
Waxing Gibbous, 97% of the Moon is Illuminated
Apr 13
Waxing Gibbous
Apr 15
Full
Apr 22
Last Quarter
Apr 29
New
May 6
First Quarter

Hourly Weather History & Observations

Time (CDT) Temp. Dew Point Humidity Pressure Visibility Wind Dir Wind Speed Gust Speed Precip Events Conditions
12:15 AM 69.8 °F 53.6 °F 56% 29.81 in 10.0 mi South 15.0 mph - N/A   Clear
12:35 AM 69.8 °F 53.6 °F 56% 29.81 in 10.0 mi SSW 16.1 mph 23.0 mph N/A   Clear
12:55 AM 69.8 °F 53.6 °F 56% 29.81 in 10.0 mi South 15.0 mph 19.6 mph N/A   Clear
1:15 AM 69.8 °F 53.6 °F 56% 29.81 in 10.0 mi SSW 16.1 mph - N/A   Clear
1:35 AM 69.8 °F 53.6 °F 56% 29.82 in 10.0 mi SSW 13.8 mph - N/A   Clear
1:55 AM 69.8 °F 55.4 °F 60% 29.82 in 10.0 mi SSW 17.3 mph 21.9 mph N/A   Clear
2:15 AM 69.8 °F 55.4 °F 60% 29.82 in 10.0 mi SSW 15.0 mph 19.6 mph N/A   Clear
2:35 AM 68.0 °F 55.4 °F 64% 29.82 in 10.0 mi SSW 12.7 mph 19.6 mph N/A   Clear
2:55 AM 68.0 °F 55.4 °F 64% 29.83 in 10.0 mi SSW 10.4 mph - N/A   Clear
3:15 AM 68.0 °F 55.4 °F 64% 29.83 in 10.0 mi SSW 10.4 mph - N/A   Clear
3:35 AM 68.0 °F 55.4 °F 64% 29.83 in 10.0 mi SSW 11.5 mph - N/A   Clear
3:55 AM 68.0 °F 55.4 °F 64% 29.84 in 10.0 mi SSW 11.5 mph - N/A   Clear
4:15 AM 68.0 °F 57.2 °F 68% 29.88 in 10.0 mi West 5.8 mph - N/A   Scattered Clouds
4:35 AM 68.0 °F 57.2 °F 68% 29.88 in 10.0 mi SSW 6.9 mph - N/A   Scattered Clouds
4:55 AM 66.2 °F 57.2 °F 73% 29.87 in 10.0 mi South 9.2 mph - N/A   Scattered Clouds
5:15 AM 66.2 °F 57.2 °F 73% 29.87 in 10.0 mi South 10.4 mph - N/A   Clear
5:35 AM 64.4 °F 57.2 °F 77% 29.86 in 10.0 mi South 10.4 mph - N/A   Clear
5:55 AM 64.4 °F 57.2 °F 77% 29.86 in 10.0 mi South 12.7 mph - N/A   Clear
6:15 AM 64.4 °F 57.2 °F 77% 29.87 in 10.0 mi South 9.2 mph - N/A   Clear
6:35 AM 64.4 °F 57.2 °F 77% 29.86 in 10.0 mi South 10.4 mph - N/A   Clear
6:55 AM 64.4 °F 59.0 °F 83% 29.86 in 10.0 mi South 10.4 mph - N/A   Clear
7:15 AM 66.2 °F 59.0 °F 78% 29.86 in 10.0 mi South 11.5 mph - N/A   Clear
7:35 AM 68.0 °F 59.0 °F 73% 29.86 in 10.0 mi South 13.8 mph - N/A   Clear
7:55 AM 69.8 °F 59.0 °F 68% 29.86 in 10.0 mi South 12.7 mph - N/A   Clear
8:15 AM 69.8 °F 59.0 °F 68% 29.85 in 10.0 mi South 19.6 mph - N/A   Clear
8:35 AM 71.6 °F 59.0 °F 64% 29.85 in 10.0 mi South 17.3 mph 21.9 mph N/A   Clear
8:55 AM 71.6 °F 59.0 °F 64% 29.84 in 10.0 mi South 18.4 mph - N/A   Clear
9:15 AM 71.6 °F 60.8 °F 69% 29.84 in 10.0 mi South 18.4 mph 27.6 mph N/A   Scattered Clouds
9:35 AM 71.6 °F 60.8 °F 69% 29.84 in 10.0 mi SSW 19.6 mph 27.6 mph N/A   Mostly Cloudy
9:55 AM 71.6 °F 60.8 °F 69% 29.84 in 10.0 mi South 23.0 mph 28.8 mph N/A   Mostly Cloudy
10:15 AM 71.6 °F 59.0 °F 64% 29.85 in 10.0 mi SSW 21.9 mph 28.8 mph N/A   Mostly Cloudy
10:35 AM 71.6 °F 59.0 °F 64% 29.86 in 10.0 mi SSW 18.4 mph 32.2 mph N/A   Overcast
10:55 AM 71.6 °F 59.0 °F 64% 29.86 in 10.0 mi SSW 21.9 mph 29.9 mph N/A   Overcast
11:15 AM 71.6 °F 59.0 °F 64% 29.85 in 10.0 mi SSW 24.2 mph 28.8 mph N/A   Overcast
11:35 AM 73.4 °F 59.0 °F 61% 29.85 in 10.0 mi South 15.0 mph 25.3 mph N/A   Overcast
11:55 AM 73.4 °F 59.0 °F 61% 29.85 in 10.0 mi SSW 15.0 mph 25.3 mph N/A   Overcast
12:15 PM 73.4 °F 59.0 °F 61% 29.84 in 10.0 mi SSW 19.6 mph 29.9 mph N/A   Overcast
12:35 PM 73.4 °F 57.2 °F 57% 29.83 in 10.0 mi SSW 23.0 mph 32.2 mph N/A   Overcast
12:55 PM 75.2 °F 57.2 °F 53% 29.82 in 10.0 mi SSW 23.0 mph 28.8 mph N/A   Overcast
1:15 PM 73.4 °F 59.0 °F 61% 29.82 in 10.0 mi SSW 21.9 mph 31.1 mph N/A   Overcast
1:35 PM 75.2 °F 59.0 °F 57% 29.81 in 10.0 mi SSW 20.7 mph 27.6 mph N/A   Overcast
1:55 PM 73.4 °F 57.2 °F 57% 29.81 in 10.0 mi SSW 25.3 mph 31.1 mph N/A   Overcast
2:15 PM 75.2 °F 59.0 °F 57% 29.80 in 10.0 mi SSW 18.4 mph 29.9 mph N/A   Overcast
2:35 PM 75.2 °F 59.0 °F 57% 29.80 in 10.0 mi SSW 18.4 mph 21.9 mph N/A   Overcast
2:55 PM 75.2 °F 59.0 °F 57% 29.79 in 10.0 mi SSW 20.7 mph 27.6 mph N/A   Overcast
3:15 PM 75.2 °F 59.0 °F 57% 29.78 in 10.0 mi SSW 25.3 mph 28.8 mph N/A   Overcast
3:35 PM 73.4 °F 59.0 °F 61% 29.79 in 10.0 mi SSW 17.3 mph 24.2 mph N/A   Overcast
3:55 PM 73.4 °F 59.0 °F 61% 29.78 in 10.0 mi SSW 18.4 mph 27.6 mph N/A   Overcast
4:15 PM 73.4 °F 59.0 °F 61% 29.76 in 10.0 mi SSW 18.4 mph 21.9 mph N/A   Overcast
4:35 PM 75.2 °F 57.2 °F 53% 29.75 in 10.0 mi South 16.1 mph 29.9 mph N/A   Mostly Cloudy
4:55 PM 75.2 °F 57.2 °F 53% 29.74 in 10.0 mi South 18.4 mph 27.6 mph N/A   Scattered Clouds
5:15 PM 77.0 °F 57.2 °F 50% 29.73 in 10.0 mi South 17.3 mph 28.8 mph N/A   Clear
5:35 PM 77.0 °F 57.2 °F 50% 29.73 in 10.0 mi SSW 19.6 mph - N/A   Scattered Clouds
5:55 PM 77.0 °F 57.2 °F 50% 29.72 in 10.0 mi SSW 19.6 mph 29.9 mph N/A   Scattered Clouds
6:15 PM 75.2 °F 57.2 °F 53% 29.72 in 10.0 mi SSW 20.7 mph 34.5 mph N/A   Scattered Clouds
6:40 PM 73.4 °F 59.0 °F 61% 29.72 in 10.0 mi SW 23.0 mph - N/A   Mostly Cloudy
6:55 PM 73.4 °F 59.0 °F 61% 29.72 in 10.0 mi SSW 17.3 mph - N/A   Overcast
7:15 PM 73.4 °F 59.0 °F 61% 29.71 in 10.0 mi SSW 12.7 mph - N/A   Overcast
7:35 PM 71.6 °F 59.0 °F 64% 29.70 in 10.0 mi SSW 11.5 mph - N/A   Mostly Cloudy
7:55 PM 71.6 °F 59.0 °F 64% 29.68 in 10.0 mi South 10.4 mph - N/A   Scattered Clouds
8:15 PM 69.8 °F 59.0 °F 68% 29.67 in 10.0 mi South 9.2 mph - N/A   Clear
8:35 PM 69.8 °F 59.0 °F 68% 29.68 in 10.0 mi South 8.1 mph - N/A   Scattered Clouds
8:55 PM 69.8 °F 59.0 °F 68% 29.67 in 10.0 mi South 9.2 mph - N/A   Overcast
9:15 PM 71.6 °F 59.0 °F 64% 29.66 in 10.0 mi South 9.2 mph - N/A   Scattered Clouds
9:55 PM 71.6 °F 59.0 °F 64% 29.66 in 10.0 mi South 16.1 mph - N/A   Overcast
10:20 PM 71.6 °F 59.0 °F 64% 29.65 in 10.0 mi South 17.3 mph 21.9 mph N/A   Overcast
10:35 PM 71.6 °F 59.0 °F 64% 29.66 in 10.0 mi SSW 21.9 mph 31.1 mph N/A Rain Rain
10:55 PM 69.8 °F 60.8 °F 73% 29.66 in 10.0 mi SW 16.1 mph - 0.01 in Rain Light Rain
11:15 PM 68.0 °F 60.8 °F 78% 29.66 in 10.0 mi SW 15.0 mph - 0.01 in Rain Light Rain
11:35 PM 66.2 °F 60.8 °F 83% 29.64 in 10.0 mi South 11.5 mph - 0.02 in Rain Light Rain
11:55 PM 66.2 °F 60.8 °F 83% 29.62 in 10.0 mi South 19.6 mph 24.2 mph 0.02 in Rain Light Rain